sat.trackr.live / text

‹ back to catalog

STARLINK-6072

NORAD 56806 · 2023-078AR

PAYLOAD ACTIVE UNKNOWN

§ Identity

Operator
Country
US
Launch date
2023-05-31
Launch site
AFWTR
Launch vehicle
Mass (kg)
RCS (m²)

Purposes: comms

External: N2YO · Heavens-Above · Gunter

§ Orbital elements

Epoch: 2026-05-25T03:39:06.203232Z

Period
96.11 min
Inclination
69.9989°
Eccentricity
0.0003241
Mean motion
14.98331397 rev/d
Perigee alt
569.8 km
Apogee alt
574.3 km
Semi-major
6,950.2 km
B*
4.6976e-5
RAAN
111.5125°
Arg perigee
264.9198°
Mean anomaly
95.1591°
Rev number
16,509

§ Raw data

STARLINK-60721 56806U 23078AR  26145.15215513  .00000468  00000+0  46976-4 0  99992 56806  69.9989 111.5125 0003241 264.9198  95.1591 14.98331397165091

JSON: /api/v1/satellites/56806 · /tle

For live sub-satellite position, see the globe view (requires WebGL).

§ Visibility from observer

Set your observer location to see the next 7 days of passes ≥ 10°. The values pass through the URL so the page stays shareable.

No JS? Fill the form by hand. The geolocation button needs JavaScript.